Regional Weather Roundup
Issued by NWS

Home | Current Version | Previous Version | Graphics & Text | Print | Product List | Glossary On
Versions: 1 2 3 4 5 6 7 8 9 10 11 12 13 14 15 16 17 18 19 20 21 22 23 24 25 26 27 28
000
ASUS45 KBOI 260310
RWRID

IDAHO REGIONAL WEATHER ROUNDUP
NATIONAL WEATHER SERVICE BOISE ID
900 PM MDT WED APR 25 2018

NOTE: "FAIR" INDICATES FEW OR NO CLOUDS BELOW 12000 FEET
WITH NO SIGNIFICANT WEATHER AND/OR OBSTRUCTIONS TO VISIBILITY

IDZ012-014-260400-
SOUTHWEST IDAHO


CITY           SKY/WX    TMP DP  RH WIND       PRES   REMARKS
BOISE          PTCLDY    67  32  27 W5        30.07R
CALDWELL       PTCLDY    67  33  28 CALM      30.06F
MOUNTAIN HOME  CLEAR     60  26  27 NW9       30.07R
$$

IDZ016-017-260400-
SOUTHCENTRAL IDAHO


CITY           SKY/WX    TMP DP  RH WIND       PRES   REMARKS
BURLEY         CLEAR     57  27  31 W9        30.08S
JEROME         PTCLDY    61  24  24 W10       30.09R
TWIN FALLS     CLEAR     57  26  30 SW10      30.11R
$$

IDZ019>023-260400-
SOUTHEAST IDAHO


CITY           SKY/WX    TMP DP  RH WIND       PRES   REMARKS
IDAHO FALLS    PTCLDY    57  29  34 S6        30.11R
POCATELLO      PTCLDY    54  31  41 S10       30.10R
REXBURG        CLEAR     56  28  34 CALM      30.10R
$$

IDZ006-010-011-018-031-032-260400-
CENTRAL IDAHO MOUNTAINS


CITY           SKY/WX    TMP DP  RH WIND       PRES   REMARKS
MCCALL         PTCLDY    59  32  36 N3        30.15R
HAILEY         CLEAR     63  23  22 NW7       30.12R
STANLEY          N/A     44  25  47 S5        30.22R
SALMON         CLEAR     59  22  24 NW8       30.12R
CHALLIS        CLEAR     57  22  25 NW8       30.13R
$$

IDZ002-004-006-007-026-260400-
NORTHERN IDAHO


CITY           SKY/WX    TMP DP  RH WIND       PRES   REMARKS
LEWISTON       CLEAR     72  35  25 CALM      30.08R
LOWELL           N/A     56  44  64 N5        30.09R
COEUR D`ALENE  CLEAR     59  36  42 NW3       30.10R
MULLAN PASS    CLEAR     46  26  45 NW5       30.20S
$$




USA.gov is the U.S. government's official web portal to all federal, state and local government web resources and services.